Weather History for Elmira, NY

Change the Weather History Date:

Sunday, November 25, 2012

  Actual Average Record
Temperature  
Mean Temperature 31 °F -  
Max Temperature 34 °F 45 °F 65 °F (1979)
Min Temperature 28 °F 26 °F 10 °F (2013)
Degree Days  
Heating Degree Days 34    
Moisture  
Dew Point 21 °F    
Average Humidity 64    
Maximum Humidity 75    
Minimum Humidity 54    
Precipitation  
Precipitation 0.00 in - - ()
Sea Level Pressure  
Sea Level Pressure 29.89 in    
Wind  
Wind Speed 8 mph (West)    
Max Wind Speed 15 mph    
Max Gust Speed 21 mph    
Visibility 9 miles    
Events Snow    
Averages and records for this station are not official NWS values.
T = Trace of Precipitation, MM = Missing Value Source: NWS Daily Summary

Daily Weather History Graph

Daily Weather History Graph

Search for Another Location

Airport:

Trip Planner

Search our weather history database for the weather conditions in past years. The results will help you decide how hot, cold, wet, or windy it might be!

Date:

Astronomy

Nov. 25, 2012 Rise Set
Actual Time 7:10 AM EST 4:38 PM EST
Civil Twilight 6:39 AM EST 5:09 PM EST
Nautical Twilight 6:04 AM EST 5:44 PM EST
Astronomical Twilight 5:31 AM EST 6:17 PM EST
Moon 2:56 PM EST (11/25) 4:20 AM EST (11/25)
Length of Visible Light 10h 30m
Length of Day
9h 28m
Waxing Gibbous, 93% of the Moon is Illuminated
Nov 25
Waxing Gibbous
Nov 28
Full
Dec 6
Last Quarter
Dec 13
New
Dec 20
First Quarter

Hourly Weather History & Observations

Time (EST) Temp. Windchill Dew Point Humidity Pressure Visibility Wind Dir Wind Speed Gust Speed Precip Events Conditions
12:53 AM 30.9 °F 21.2 °F 17.1 °F 57% 29.91 in 10.0 mi WNW 12.7 mph 19.6 mph N/A   Overcast
1:53 AM 30.9 °F 20.2 °F 16.0 °F 54% 29.92 in 10.0 mi West 15.0 mph 20.7 mph N/A   Overcast
2:53 AM 28.9 °F 21.1 °F 15.1 °F 56% 29.92 in 10.0 mi West 8.1 mph - N/A   Scattered Clouds
3:53 AM 30.9 °F 23.5 °F 17.1 °F 57% 29.92 in 10.0 mi West 8.1 mph - N/A   Overcast
4:53 AM 30.9 °F 22.8 °F 18.0 °F 59% 29.92 in 10.0 mi West 9.2 mph - N/A   Overcast
5:53 AM 30.9 °F 24.3 °F 18.0 °F 59% 29.92 in 10.0 mi West 6.9 mph - N/A   Overcast
6:53 AM 30.9 °F 26.2 °F 19.0 °F 61% 29.92 in 10.0 mi West 4.6 mph - N/A   Overcast
7:53 AM 30.9 °F 27.5 °F 19.9 °F 64% 29.92 in 10.0 mi North 3.5 mph - N/A   Overcast
8:50 AM 30.2 °F - 21.2 °F 69% 29.89 in 10.0 mi Calm Calm - N/A   Overcast
8:53 AM 30.9 °F - 21.0 °F 67% 29.92 in 10.0 mi Calm Calm - 0.00 in Snow Light Snow
9:53 AM 30.9 °F - 21.9 °F 69% 29.92 in 8.0 mi Calm Calm - 0.00 in Snow Light Snow
10:32 AM 32.0 °F - 24.8 °F 75% 29.88 in 10.0 mi Calm Calm - 0.00 in   Overcast
10:53 AM 33.1 °F 28.7 °F 23.0 °F 66% 29.89 in 10.0 mi West 4.6 mph - 0.00 in   Overcast
11:53 AM 34.0 °F 26.6 °F 23.0 °F 64% 29.87 in 5.0 mi West 9.2 mph 18.4 mph 0.00 in Snow Light Snow
12:19 PM 33.8 °F 25.8 °F 24.8 °F 70% 29.84 in 3.0 mi West 10.4 mph - 0.00 in Snow Light Snow
12:45 PM 33.8 °F 26.4 °F 24.8 °F 70% 29.83 in 3.0 mi WSW 9.2 mph - 0.00 in Snow Light Snow
12:53 PM 34.0 °F 28.0 °F 25.0 °F 70% 29.86 in 3.0 mi West 6.9 mph - 0.00 in Snow Light Snow
1:09 PM 33.8 °F 27.0 °F 24.8 °F 70% 29.82 in 3.0 mi WSW 8.1 mph - 0.00 in Snow Light Snow
1:53 PM 34.0 °F 24.2 °F 23.0 °F 64% 29.84 in 10.0 mi WSW 15.0 mph - 0.00 in   Overcast
2:53 PM 33.1 °F 26.1 °F 23.0 °F 66% 29.84 in 7.0 mi WSW 8.1 mph 18.4 mph 0.00 in Snow Light Snow
3:53 PM 33.1 °F 25.5 °F 21.9 °F 64% 29.85 in 10.0 mi West 9.2 mph - 0.00 in   Overcast
4:53 PM 33.1 °F 24.9 °F 23.0 °F 66% 29.85 in 10.0 mi SW 10.4 mph - 0.00 in   Overcast
5:53 PM 32.0 °F 27.5 °F 23.0 °F 69% 29.87 in 10.0 mi WSW 4.6 mph - 0.00 in   Overcast
6:53 PM 33.1 °F 26.1 °F 21.9 °F 64% 29.89 in 10.0 mi WSW 8.1 mph - N/A   Overcast
7:53 PM 34.0 °F 25.5 °F 21.0 °F 59% 29.90 in 10.0 mi WSW 11.5 mph - N/A   Overcast
8:53 PM 33.1 °F 25.5 °F 21.9 °F 64% 29.90 in 10.0 mi WSW 9.2 mph - N/A   Overcast
9:53 PM 33.1 °F 28.7 °F 23.0 °F 66% 29.89 in 10.0 mi SW 4.6 mph - N/A   Overcast
10:53 PM 34.0 °F 28.8 °F 21.9 °F 61% 29.89 in 10.0 mi WSW 5.8 mph - N/A   Overcast
11:53 PM 34.0 °F - 23.0 °F 64% 29.90 in 10.0 mi Calm Calm - N/A   Overcast